SCP
1 1 1 1 1 1 2 2 3 3 2 1 1 1 1 1 1 1 1 1 1 1 1 0 0 0 0 0 0 0 0 0 0 0 0 0 0 0 0 0 0 0 0
2 1 1 1 1 1 2 2 2 2 2 2 1 1 1 1 1 1 1 1 1 1 0 0 0 0 0 0 0 0 0 0 0 0 0 0 0 0 0 0 0 0 0
2 2 2 1 1 1 2 2 2 2 2 2 1 1 1 1 1 1 1 1 1 0 0 0 0 1 1 0 0 0 0 0 0 0 0 0 0 0 0 0 0 0 0
2 2 2 2 1 1 2 2 2 3 2 2 2 1 1 1 1 1 1 1 1 1 0 0 0 1 1 1 0 0 0 0 0 0 0 0 0 0 0 0 0 0 0
2 2 2 2 2 2 2 2 2 3 3 2 2 2 1 1 1 1 1 1 1 1 1 1 1 1 1 0 0 0 0 0 0 0 0 0 0 0 0 0 0 0 0
3 2 2 2 2 2 2 2 2 3 3 3 2 2 1 1 1 1 1 1 1 1 1 1 1 1 1 1 0 0 0 0 0 0 0 0 0 0 0 0 0 0 0
3 2 2 2 2 2 2 2 2 3 3 3 2 2 2 1 1 1 1 1 1 1 1 1 1 1 1 1 0 0 0 0 0 0 0 0 0 0 0 0 0 0 0
2 2 2 2 2 2 2 2 2 3 3 3 2 2 2 1 1 1 1 1 1 1 1 1 1 1 1 1 1 1 1 0 0 0 0 0 0 0 0 0 0 0 0
2 2 2 2 2 2 2 2 2 2 2 2 2 2 1 1 1 1 1 1 1 1 1 1 1 1 1 1 1 1 1 0 0 0 0 0 0 0 0 0 0 0 0
2 2 2 2 1 2 2 2 2 2 2 1 1 1 1 1 1 1 1 1 1 1 1 1 1 1 1 1 1 1 1 0 0 0 0 0 0 0 0 0 0 0 0
1 1 1 1 1 1 1 1 1 1 1 1 1 1 1 1 1 1 1 1 1 1 1 1 1 2 2 1 1 1 1 0 0 0 0 0 0 0 0 0 0 0 0
1 1 1 1 1 1 1 1 1 1 1 1 1 1 1 1 1 0 0 1 1 1 1 1 1 1 1 1 1 1 1 0 0 0 0 0 0 0 0 0 0 0 1
0 0 0 1 1 1 1 1 1 1 1 1 1 1 1 0 0 0 0 0 1 1 1 1 1 1 1 1 1 1 1 0 0 0 0 0 0 0 0 0 0 1 1
0 0 0 0 1 1 1 1 1 1 1 1 1 1 1 0 0 0 0 0 1 1 1 1 1 1 1 1 1 1 1 1 0 0 0 0 0 0 0 1 1 1 1
0 0 0 0 0 0 1 1 0 0 1 1 1 1 1 1 0 0 0 0 1 1 1 1 1 1 1 1 1 1 1 1 1 1 0 0 0 0 0 1 1 1 1
0 0 0 0 0 0 0 0 0 0 0 1 1 1 1 1 0 0 0 0 0 1 1 1 1 2 1 1 1 1 1 1 1 1 1 1 0 0 0 0 1 1 1
0 0 0 0 0 0 0 0 0 0 0 0 0 1 1 1 1 0 0 0 0 1 1 1 1 1 2 1 1 1 1 1 1 1 1 1 1 0 0 0 1 1 1
0 0 0 0 0 0 0 0 0 0 0 0 0 1 1 1 1 0 0 0 0 1 1 1 1 1 1 1 1 1 1 1 1 1 1 1 1 0 0 0 1 1 1
0 0 0 0 0 0 0 0 0 0 0 0 0 0 1 1 1 0 0 1 1 1 1 1 1 1 1 1 1 1 1 1 1 1 1 1 1 1 0 0 0 1 1
0 0 0 0 0 0 0 0 0 0 0 0 0 0 0 1 0 0 0 1 1 1 1 1 1 1 1 1 1 1 1 1 1 1 1 1 1 1 1 0 0 0 0
0 0 0 0 0 0 0 0 0 0 0 0 0 0 0 0 0 0 0 1 1 1 1 1 1 1 1 1 1 0 0 1 1 1 1 1 1 1 1 1 0 0 0
0 0 0 0 0 0 0 0 0 0 0 0 0 0 0 0 0 0 0 0 0 1 1 1 1 1 1 1 0 0 0 0 0 0 1 1 1 1 1 1 0 0 0
0 0 0 0 0 0 0 0 0 0 0 0 0 0 0 0 0 0 0 0 0 1 1 1 1 1 1 0 0 0 0 0 0 0 0 1 1 1 1 1 0 0 0
0 0 0 0 0 0 0 0 0 0 0 0 0 0 0 0 0 0 0 0 0 1 1 1 1 1 1 0 0 0 0 0 0 0 0 0 1 1 1 1 1 0 0
0 0 0 0 0 0 0 0 0 0 0 0 0 0 0 0 0 0 0 0 1 1 1 1 1 1 1 1 0 0 1 0 0 0 0 0 0 0 1 1 1 1 1
0 0 0 0 0 0 0 0 0 0 0 0 0 0 0 0 0 0 0 0 1 1 1 1 1 1 1 1 0 1 1 1 0 0 0 0 0 0 0 0 1 1 0
Wind_Speed
3 3 3 2 4 5 5 5 5 5 5 6 7 7 7 7 7 7 6 6 6 6 6 7 7 7 7 8 8 9 9 10 10 10 9 8 9 9 10 9 8 6 11
3 3 3 3 3 4 4 4 4 4 4 4 5 6 6 6 6 6 6 5 5 5 6 6 6 6 7 8 8 9 9 9 10 9 8 6 7 8 9 8 8 6 10
2 2 2 4 4 4 3 3 4 4 3 2 2 3 4 5 5 5 5 5 5 5 5 5 6 6 7 7 7 8 8 9 8 8 7 3 3 7 8 7 8 9 9
2 2 3 4 5 4 3 3 3 3 3 2 1 1 2 3 4 4 4 4 4 5 5 5 6 6 7 7 7 7 7 8 7 6 3 2 1 5 7 7 7 8 8
4 4 4 6 5 5 4 3 3 2 2 2 2 1 1 2 3 4 4 4 4 4 5 5 6 7 7 7 7 7 7 7 6 4 2 1 1 3 6 6 6 7 7
5 4 4 7 6 6 5 4 4 3 3 2 2 2 2 2 2 3 4 4 4 5 5 6 7 7 7 7 7 7 7 7 5 2 1 1 1 3 5 6 6 6 6
5 5 5 8 7 7 6 6 5 4 4 4 3 3 3 3 3 3 3 4 5 6 6 7 7 7 8 8 7 7 7 7 4 3 2 2 2 5 5 6 6 6 6
5 6 6 9 9 8 7 7 7 6 6 5 5 4 4 4 4 4 4 5 5 6 7 7 7 8 8 8 8 7 7 7 5 3 3 3 5 6 6 6 6 6 5
7 7 7 6 7 9 9 8 8 7 7 7 6 6 5 5 5 5 4 5 6 6 7 7 8 8 8 8 8 7 7 7 5 3 4 3 6 8 7 7 7 6 6
8 8 7 7 7 6 6 8 9 8 7 7 7 7 6 5 5 5 5 5 6 6 7 8 8 9 8 8 8 7 7 6 4 4 3 4 9 10 9 8 8 8 7
9 8 7 7 7 7 5 7 7 7 8 7 6 7 6 3 3 3 4 5 6 7 7 8 9 9 8 7 7 7 6 3 4 4 3 7 11 11 11 10 10 10 9
8 8 7 7 7 6 6 5 4 4 4 4 3 4 3 3 3 4 5 5 6 6 7 8 8 8 7 4 5 6 3 4 4 4 5 11 12 13 12 12 11 11 11
5 7 8 7 6 6 5 4 3 3 3 4 4 4 3 3 2 3 2 3 3 4 3 4 5 4 4 4 4 4 4 4 4 4 6 12 14 14 14 13 13 13 13
6 7 7 7 7 6 5 4 3 3 3 3 4 5 3 2 2 2 2 2 2 2 2 2 2 3 4 5 6 6 6 4 4 4 5 11 14 15 15 15 15 14 14
6 7 7 7 7 7 5 4 5 4 4 4 4 4 4 3 3 3 2 2 2 2 2 3 3 4 5 5 6 6 7 7 6 6 5 10 13 15 16 16 16 16 16
5 6 6 7 7 7 5 5 4 4 4 4 4 5 5 3 3 3 3 3 3 3 3 3 4 4 4 4 6 7 7 7 7 7 6 7 12 14 16 17 17 17 17
4 5 7 6 7 7 6 6 4 4 4 4 5 6 6 5 4 4 3 3 3 3 4 3 4 4 4 5 6 7 6 7 7 8 7 6 6 11 14 17 17 17 17
4 5 6 7 7 7 6 5 4 4 4 4 4 5 6 6 6 4 3 3 4 3 3 3 3 4 4 5 5 5 6 6 8 8 7 6 5 6 9 15 16 16 16
4 5 6 6 7 7 6 4 4 3 4 4 4 4 6 7 6 4 3 4 4 3 3 3 3 3 4 5 5 5 5 6 6 7 7 7 7 7 6 9 13 14 14
4 4 5 6 6 6 4 3 3 4 4 4 4 5 7 6 6 5 4 5 4 3 3 3 4 4 3 4 5 6 5 6 5 6 7 6 6 7 7 7 7 9 13
4 5 5 6 6 5 4 4 3 4 4 4 4 6 7 7 7 5 5 5 4 3 4 4 3 4 3 2 3 3 4 5 5 5 5 5 6 7 6 7 6 5 6
3 4 4 5 5 5 4 3 2 3 2 3 4 5 7 7 7 5 5 5 5 4 4 4 4 3 2 1 1 2 3 3 3 5 4 5 5 4 6 7 6 6 5
2 3 4 4 5 5 4 3 3 2 2 3 5 5 6 7 7 6 6 5 5 4 4 4 4 3 3 2 1 1 2 3 3 2 4 4 4 4 4 5 6 6 6
2 2 2 3 4 4 4 3 3 3 3 4 4 4 6 6 6 6 6 6 5 4 4 4 4 3 3 2 2 1 2 2 2 3 2 2 3 4 4 4 5 5 5
2 2 2 2 3 4 4 3 3 2 2 3 4 5 5 5 6 6 6 5 5 4 5 5 4 4 2 2 2 2 2 2 2 3 4 3 2 3 3 4 3 3 3
2 1 1 2 3 3 3 3 2 2 3 4 5 5 5 4 4 7 6 5 5 4 5 4 4 4 3 2 2 1 1 1 2 2 3 4 4 3 3 3 2 2 3
Wind_Direction
315 311 333 55 85 93 91 88 91 99 116 125 124 124 125 126 126 127 128 130 131 129 124 122 120 117 117 116 114 110 109 104 100 96 93 96 104 104 103 96 88 85 96
278 303 349 36 76 93 90 80 73 78 89 119 132 136 139 141 141 142 143 143 144 141 138 137 134 129 126 125 121 115 111 108 104 99 87 82 96 106 104 102 102 102 99
323 340 1 34 56 71 84 82 76 70 71 81 123 146 154 157 160 162 160 161 159 152 149 150 148 142 137 133 131 127 123 120 115 104 92 79 94 112 109 106 106 104 105
354 14 22 36 49 53 63 67 67 65 60 53 59 137 178 179 175 177 178 180 175 168 162 160 157 153 149 146 144 142 138 134 126 112 92 77 77 123 123 118 113 112 108
26 21 21 34 38 39 45 48 46 39 33 33 26 13 295 236 211 196 193 191 187 186 180 173 165 162 162 162 159 155 151 145 133 117 109 77 27 141 137 131 123 118 115
28 19 22 32 33 31 30 32 29 26 16 4 358 352 327 304 263 238 215 196 190 195 195 185 180 175 175 177 175 170 164 154 136 128 147 192 246 177 153 144 142 136 130
29 21 24 30 30 28 22 19 15 13 10 357 340 332 325 314 295 269 247 222 205 203 205 199 193 190 186 187 189 185 174 159 150 160 179 210 225 198 176 163 163 161 152
34 24 24 25 24 22 17 11 8 6 360 354 343 329 322 316 306 289 265 244 227 218 214 211 203 200 199 196 197 193 180 168 168 180 194 214 223 209 195 183 178 173 168
35 28 22 16 17 14 10 7 2 360 358 355 350 343 335 327 316 307 291 263 243 232 222 219 215 209 207 204 202 196 186 181 169 186 205 214 225 215 205 195 188 185 185
31 24 18 12 12 6 357 1 1 357 356 355 354 350 341 331 320 313 305 283 259 243 231 224 220 216 213 209 206 201 193 181 183 194 206 220 224 218 213 207 202 202 202
22 15 13 10 7 1 356 360 359 357 358 359 354 348 345 335 322 313 307 299 279 258 241 231 226 221 215 211 208 204 194 184 187 203 209 224 225 223 221 217 212 211 211
9 4 10 6 2 359 358 357 351 353 353 357 349 344 339 332 322 319 310 304 295 280 259 244 235 225 216 211 213 206 200 194 197 208 216 225 228 229 226 223 219 218 217
1 3 2 0 360 1 356 351 349 350 352 353 352 345 337 335 332 329 320 314 303 293 276 264 248 233 219 210 210 210 209 204 208 214 220 227 231 233 232 228 223 222 222
13 4 359 358 1 360 356 348 349 353 351 350 344 343 345 339 334 323 314 306 302 294 278 269 254 241 229 221 216 216 216 214 216 217 224 228 233 236 236 234 227 226 225
15 3 358 358 2 356 356 352 1 356 351 345 347 348 347 336 323 316 310 305 295 287 274 267 258 248 241 234 228 224 223 222 224 222 228 228 232 236 238 238 232 229 228
11 2 356 3 3 357 357 355 358 355 353 352 350 346 346 339 326 317 310 304 297 287 275 265 259 254 248 243 239 233 232 229 229 228 228 230 232 235 239 241 239 234 231
5 0 357 1 5 1 357 357 2 357 355 356 351 350 351 346 333 323 315 310 303 292 284 278 273 264 256 248 245 240 235 233 234 231 230 228 232 234 237 242 243 240 236
8 3 359 1 360 357 356 357 359 357 357 357 353 350 351 350 344 335 328 319 311 299 289 281 275 270 261 255 250 245 238 234 235 234 232 229 228 232 235 239 243 244 241
8 359 356 355 356 351 349 354 356 357 2 359 357 356 352 351 350 345 335 325 320 309 295 288 277 264 266 267 261 251 240 235 234 233 230 229 228 228 228 234 236 242 245
8 2 358 355 355 349 347 351 358 6 5 3 360 357 354 350 349 348 338 335 332 321 315 308 292 279 265 270 271 264 251 239 230 229 231 230 229 229 228 232 232 236 239
10 7 2 360 356 358 356 353 350 353 350 358 358 357 355 351 349 354 347 343 343 329 321 316 299 295 284 294 278 278 265 244 234 232 227 227 229 228 226 228 230 230 236
360 357 359 360 355 358 354 339 323 319 330 345 347 353 355 353 351 356 354 347 344 335 335 336 335 310 298 314 290 293 295 294 256 239 232 228 231 228 228 228 228 229 232
340 343 350 351 353 353 350 351 347 350 337 348 352 352 351 353 354 355 354 350 348 347 338 334 338 323 302 297 284 270 280 270 311 282 242 234 235 235 236 230 229 231 233
293 316 332 342 349 351 355 7 12 9 350 332 331 334 340 351 354 354 353 353 349 345 341 334 342 323 309 309 304 285 267 280 277 295 294 278 267 252 247 244 237 234 234
270 291 315 338 347 353 2 5 9 0 333 322 333 339 342 347 352 353 351 352 350 345 341 340 338 337 321 306 306 304 292 293 270 269 284 297 296 269 261 253 242 236 238
261 283 309 338 340 347 356 1 2 349 343 345 344 343 342 343 347 352 350 349 348 346 342 336 334 333 329 324 316 315 305 296 290 271 275 290 286 274 272 248 235 244 248